Capri, Italy

10:04 PM CEST on May 24, 2017 (GMT +0200)
Capri

Weather History for LIQC - October, 2013

Change the Weather History Date:

Friday, October 4, 2013

  Actual Average (LIRN) Record (LIRN)
Temperature  
Mean Temperature 68 °F -  
Max Temperature 75 °F 73 °F 82 °F (2011)
Min Temperature 60 °F 58 °F 50 °F (1998)
Cooling Degree Days 2    
Growing Degree Days 18 (Base 50)    
Moisture  
Dew Point 54 °F    
Average Humidity 61    
Maximum Humidity 73    
Minimum Humidity 46    
Precipitation  
Precipitation 0.00 in - - ()
Sea Level Pressure  
Sea Level Pressure 30.24 in    
Wind  
Wind Speed 3 mph ()    
Max Wind Speed 8 mph    
Max Gust Speed -    
Visibility 9.0 miles    
Events      
Averages and records for this station are not official NWS values.
T = Trace of Precipitation, MM = Missing Value Source: Averaged Metar Reports

Daily Weather History Graph

Daily Weather History Graph

Search for Another Location

Airport or City:

Trip Planner

Search our weather history database for the weather conditions in past years. The results will help you decide how hot, cold, wet, or windy it might be!

Date:

Astronomy

Oct. 04, 2013 Rise Set
Actual Time 7:02 AM CEST 6:40 PM CEST
Civil Twilight 6:35 AM CEST 7:07 PM CEST
Nautical Twilight 6:03 AM CEST 7:39 PM CEST
Astronomical Twilight 5:31 AM CEST 8:11 PM CEST
Moon 6:20 AM CEST (10/4) 6:12 PM CEST (10/4)
Length of Visible Light 12h 32m
Length of Day
11h 37m
Waning Crescent, 0% of the Moon is Illuminated
Oct 4
Waning Crescent
Oct 5
New
Oct 12
First Quarter
Oct 19
Full
Oct 27
Last Quarter

Hourly Weather History & Observations

Time (CEST) Temp. Dew Point Humidity Pressure Visibility Wind Dir Wind Speed Gust Speed Precip Events Conditions
2:00 AM 62 °F 49 °F 53% 30.23 in 12 mi North 3.5 mph - -  
3:55 AM 60.8 °F 50.0 °F 68% 30.21 in - North - - N/A   Clear
4:55 AM 60.8 °F 48.2 °F 63% 30.21 in - North - - N/A   Clear
5:00 AM 61 °F 49 °F 54% 30.24 in 12 mi 2.3 mph - -  
6:55 AM 60.8 °F 51.8 °F 72% 30.21 in - North - - N/A   Clear
7:55 AM 60.8 °F 51.8 °F 72% 30.21 in - North - - N/A   Clear
8:00 AM 61 °F 53 °F 66% 30.24 in 6 mi 8.1 mph - -   Partly Cloudy
8:55 AM 62.6 °F 51.8 °F 68% 30.24 in - North - - N/A   Clear
9:55 AM 64.4 °F 55.4 °F 73% 30.24 in - North - - N/A   Clear
10:55 AM 68.0 °F 55.4 °F 64% 30.24 in - North - - N/A   Clear
11:00 AM 68 °F 55 °F 55% 30.25 in 12 mi 2.3 mph - -   Partly Cloudy
12:55 PM 69.8 °F 53.6 °F 56% 30.27 in - North - - N/A   Clear
1:55 PM 71.6 °F 55.4 °F 57% 30.27 in - North - - N/A   Clear
2:00 PM 71 °F 55 °F 47% 30.26 in 12 mi 2.3 mph - -   Partly Cloudy
2:55 PM 71.6 °F 55.4 °F 57% 30.24 in - North - - N/A   Clear
4:55 PM 71.6 °F 55.4 °F 57% 30.24 in - North - - N/A   Mostly Cloudy
5:00 PM 72 °F 56 °F 46% 30.24 in 6 mi 2.3 mph - -   Mostly Cloudy
5:55 PM 69.8 °F 55.4 °F 60% 30.24 in - North - - N/A   Mostly Cloudy
6:55 PM 69.8 °F 57.2 °F 64% 30.24 in - North - - N/A   Mostly Cloudy
7:55 PM 68.0 °F 57.2 °F 68% 30.24 in - North - - N/A   Mostly Cloudy
8:00 PM 68 °F 58 °F 61% 30.24 in 6 mi 2.3 mph - -   Mostly Cloudy
8:55 PM 68.0 °F 59.0 °F 73% 30.24 in - North - - N/A   Mostly Cloudy
9:55 PM 68.0 °F 51.8 °F 56% 30.21 in - North - - N/A   Mostly Cloudy
10:55 PM 68.0 °F 51.8 °F 56% 30.24 in - North - - N/A   Mostly Cloudy
11:00 PM 68 °F 52 °F 47% 30.25 in 6 mi Calm Calm - -   Mostly Cloudy
11:55 PM 68.0 °F 57.2 °F 68% 30.24 in - North - - N/A   Mostly Cloudy